This is the latest recevied weather packets stored in our database for station/object K4FDS. If no packets are shown the sender has not sent any weather packets the latest 10 day(s).
| Time | Temp. | Humidity | Pressure | Rain* | Wind** | Luminosity | Snow |
|---|---|---|---|---|---|---|---|
| 1777198755 | 13.33° C | 99% | 1009.3 hPa | 0 mm | 0 m/s | - | - |
| 1777196955 | 13.33° C | 99% | 1009 hPa | 0 mm | 0 m/s | - | - |
| 1777195155 | 13.33° C | 99% | 1008.7 hPa | 0 mm | 0 m/s | - | - |
| 1777193355 | 13.33° C | 99% | 1008.5 hPa | 0 mm | 0 m/s | - | - |
| 1777191555 | 12.78° C | 99% | 1008.1 hPa | 0 mm | 0.45 m/s, 11° | - | - |
| 1777189755 | 12.78° C | 99% | 1007.6 hPa | 0 mm | 0.45 m/s, 226° | - | - |
| 1777187954 | 12.78° C | 99% | 1007.3 hPa | 0 mm | 0.45 m/s, 224° | - | - |
| 1777186154 | 12.78° C | 99% | 1007.1 hPa | 0 mm | 0.45 m/s, 223° | - | - |
| 1777184354 | 12.78° C | 99% | 1007.1 hPa | 0 mm | 0 m/s | - | - |
| 1777182554 | 13.33° C | 99% | 1007.3 hPa | 0 mm | 0.45 m/s, 228° | - | - |
| 1777180754 | 13.33° C | 99% | 1007.2 hPa | 0 mm | 0.45 m/s, 245° | - | - |
| 1777178954 | 13.89° C | 99% | 1007 hPa | 0 mm | 1.34 m/s, 228° | - | - |
| 1777177154 | 13.89° C | 99% | 1006.8 hPa | 0 mm | 0 m/s | - | - |
| 1777175354 | 14.44° C | 99% | 1006.8 hPa | 0 mm | 0.45 m/s, 223° | - | - |
| 1777173554 | 15° C | 99% | 1006.8 hPa | 0 mm | 0.45 m/s, 245° | - | - |
| 1777171754 | 15.56° C | 99% | 1007.1 hPa | 0 mm | 0 m/s | - | - |
| 1777169954 | 15.56° C | 99% | 1007.1 hPa | 0 mm | 0 m/s | - | - |
| 1777168154 | 16.11° C | 99% | 1006.6 hPa | 0 mm | 0.45 m/s, 230° | - | - |
| 1777166354 | 16.11° C | 99% | 1006.6 hPa | 0 mm | 0.45 m/s, 226° | - | - |
| 1777164554 | 16.11° C | 99% | 1006.4 hPa | 0 mm | 0 m/s | - | - |
| 1777162754 | 16.67° C | 99% | 1005.8 hPa | 0 mm | 0.45 m/s, 252° | - | - |
| 1777160954 | 16.67° C | 99% | 1005.8 hPa | 0 mm | 0.45 m/s, 252° | - | - |
| 1777159154 | 16.67° C | 99% | 1005.7 hPa | 0 mm | 0.45 m/s, 246° | - | - |
| 1777157354 | 16.67° C | 98% | 1005.6 hPa | 0 mm | 0.45 m/s, 223° | - | - |
| 1777155554 | 16.67° C | 99% | 1005.6 hPa | 0 mm | 0.45 m/s, 234° | - | - |
* Rain latest hour (hover to see other rain measurements)
** Current wind speed in m/s (hover to see current wind gust speed)